Waarnemingen

Advertentie
Mijn weer
Don Benito, Spanje (8333): temperatuur & dauwpunt: 15.10.2017 05:00:00 - 21.10.2017 05:00:00 (CEST)Don Benito, Spanje (8333): windsnelheid & windstoten: 15.10.2017 05:00:00 - 21.10.2017 05:00:00 (CEST)Don Benito, Spanje (8333): windrichting: 15.10.2017 05:00:00 - 21.10.2017 05:00:00 (CEST)Don Benito, Spanje (8333): luchtdruk: 15.10.2017 05:00:00 - 21.10.2017 05:00:00 (CEST)Don Benito, Spanje (8333): zicht: 15.10.2017 05:00:00 - 21.10.2017 05:00:00 (CEST)Don Benito, Spanje (8333): Zonneschijnduur: 15.10.2017 05:00:00 - 21.10.2017 05:00:00 (CEST)Don Benito, Spanje (8333): neerslag: 15.10.2017 05:00:00 - 21.10.2017 05:00:00 (CEST)
Datum & Tijd tt [°C] td [°C] ff [km/u] ff [kn] fx [km/u] fx [kn] dd ppp [hPa] vv [km] sd [min] rr [mm]
21.10.2017 05:00:00 - - - - - - - - - - -
21.10.2017 04:00:00 18,3 17,3 3 2 8 4 ZW - - 0 0,0
21.10.2017 03:00:00 18,3 17,3 4 2 9 5 ZW 1022,7 4,5 0 0,0
21.10.2017 02:00:00 18,5 17,4 4 2 8 5 WZW 1022,6 10 0 -
21.10.2017 01:00:00 18,7 17,5 4 2 6 4 WZW 1022,5 9 0 0,0
21.10.2017 00:00:00 18,9 17,5 1 1 11 6 W 1022,6 20 0 0,0
20.10.2017 23:00:00 19,1 17,8 3 1 6 4 Z 1022,5 20 0 0,4
20.10.2017 22:00:00 19,3 17,6 3 1 14 8 ZW 1022,3 4,4 0 0,2
20.10.2017 21:00:00 20,1 17,1 5 3 14 7 W 1021,8 20 0 0,0
20.10.2017 20:00:00 20,8 16,4 5 3 15 8 WNW 1021,0 20 0 -
20.10.2017 19:00:00 22,1 15,7 4 2 12 7 W 1020,2 20 0 0,0
20.10.2017 18:00:00 23,3 15,1 6 3 16 9 WZW 1020,1 20 40 0,0
20.10.2017 17:00:00 23,5 15,8 5 3 18 10 WZW 1020,4 20 16 0,0
20.10.2017 16:00:00 22,3 15,9 6 4 21 11 W 1020,6 20 14 0,0
20.10.2017 15:00:00 21,4 16,4 6 4 14 8 WZW 1020,8 20 1 0,0
20.10.2017 14:00:00 20,0 16,2 6 3 12 7 WNW 1021,6 20 1 -
20.10.2017 13:00:00 19,4 16,0 5 3 11 6 W 1021,9 20 0 0,0
20.10.2017 12:00:00 19,6 15,9 5 3 11 6 ZW 1021,2 20 3 0,0
20.10.2017 11:00:00 18,9 16,0 5 3 10 5 ZW 1020,9 17 42 0,0
20.10.2017 10:00:00 17,1 16,0 1 1 7 4 ZO 1020,8 6 0 0,2
20.10.2017 09:00:00 16,7 15,4 3 2 6 3 WNW 1020,0 3,8 0 0,0
20.10.2017 08:00:00 16,8 15,2 3 2 9 5 WZW 1019,3 6 0 -
20.10.2017 07:00:00 16,6 14,8 2 1 7 4 WZW 1019,0 10 0 0,0
20.10.2017 06:00:00 16,4 14,4 3 1 8 5 WZW 1018,7 11 0 0,0
20.10.2017 05:00:00 16,2 14,2 3 2 8 4 W 1018,6 13 0 0,0
20.10.2017 04:00:00 15,8 13,9 1 1 5 3 NW 1018,9 10 0 0,0
20.10.2017 03:00:00 15,4 13,6 4 2 11 6 ZZW 1018,6 8 0 0,0
20.10.2017 02:00:00 15,0 13,2 3 2 10 5 WZW 1018,9 12 0 -
20.10.2017 01:00:00 15,4 13,5 4 2 13 7 WZW 1018,6 20 0 0,0
20.10.2017 00:00:00 15,9 13,6 6 3 15 8 WZW 1018,5 20 0 0,0
19.10.2017 23:00:00 16,4 13,2 6 3 14 8 WZW 1017,9 20 0 0,0
19.10.2017 22:00:00 17,2 12,7 6 4 14 8 W 1016,9 20 0 0,0
19.10.2017 21:00:00 17,9 12,3 6 3 16 8 W 1016,2 20 0 0,0
19.10.2017 20:00:00 19,1 11,9 5 3 18 10 W 1015,7 20 0 -
19.10.2017 19:00:00 20,0 11,4 8 5 24 13 WZW 1014,8 20 3 0,0
19.10.2017 18:00:00 20,9 9,2 10 6 23 12 WZW 1014,0 20 31 0,0
19.10.2017 17:00:00 21,8 9,3 9 5 23 13 W 1013,9 20 60 0,0
19.10.2017 16:00:00 21,3 7,6 11 6 23 12 WZW 1014,0 20 58 0,0
19.10.2017 15:00:00 20,2 10,0 8 4 22 12 W 1014,5 20 56 0,0
19.10.2017 14:00:00 19,0 10,3 8 5 21 12 W 1015,0 20 54 -
19.10.2017 13:00:00 18,0 10,6 8 4 19 11 W 1015,1 20 60 0,0
19.10.2017 12:00:00 16,4 12,0 6 3 14 8 WZW 1014,7 20 60 0,0
19.10.2017 11:00:00 15,9 12,4 7 4 13 7 ZW 1014,5 20 60 0,0
19.10.2017 10:00:00 13,0 11,9 3 2 9 5 ZZW 1014,1 20 25 0,0
19.10.2017 09:00:00 11,4 10,3 2 1 5 3 ZZW 1013,4 17 0 0,0
19.10.2017 08:00:00 11,1 9,8 5 3 8 4 ZW 1013,1 13 0 -
19.10.2017 07:00:00 11,3 10,0 3 1 5 3 ZZO 1012,6 11 0 0,0
19.10.2017 06:00:00 11,7 10,3 4 2 7 4 ZZW 1012,4 9 0 0,0
19.10.2017 05:00:00 12,1 10,5 4 2 8 4 ZZW 1012,3 12 0 0,0
19.10.2017 04:00:00 12,7 10,9 3 1 7 4 W 1012,6 20 0 0,0
19.10.2017 03:00:00 13,4 11,1 3 2 12 6 ZW 1012,8 20 0 0,0
19.10.2017 02:00:00 14,0 11,3 5 3 11 6 WZW 1012,7 20 0 -
19.10.2017 01:00:00 14,4 11,3 4 2 12 7 ZW 1013,1 20 0 0,0
19.10.2017 00:00:00 14,9 11,4 4 2 16 9 W 1013,3 20 0 0,0
18.10.2017 23:00:00 15,2 11,6 6 3 13 7 ZW 1013,3 20 0 0,0
18.10.2017 22:00:00 15,0 10,8 3 1 14 7 ZW 1012,9 20 0 0,0
18.10.2017 21:00:00 15,1 9,4 8 4 16 9 ZW 1012,5 20 0 0,0
18.10.2017 20:00:00 16,4 9,8 9 5 16 9 WZW 1011,8 20 0 -
18.10.2017 19:00:00 18,6 10,2 9 5 28 15 WZW 1011,4 20 42 0,0
18.10.2017 18:00:00 19,0 10,3 11 6 31 17 WZW 1011,5 20 36 0,0
18.10.2017 17:00:00 19,2 12,0 11 6 26 14 WZW 1011,5 20 60 0,0
18.10.2017 16:00:00 16,0 13,0 9 5 23 13 ZZW 1012,3 20 15 0,0
18.10.2017 15:00:00 14,5 12,2 6 3 18 10 WZW 1013,4 20 4 1,0
18.10.2017 14:00:00 13,3 11,0 9 5 26 14 WNW 1014,0 20 0 -
18.10.2017 13:00:00 13,7 10,9 4 2 29 15 WNW 1014,3 20 0 0,8
18.10.2017 12:00:00 15,1 13,3 9 5 26 14 WZW 1014,0 7 0 0,8
18.10.2017 11:00:00 15,4 13,3 9 5 18 10 WZW 1014,0 20 1 0,0
18.10.2017 10:00:00 14,4 12,7 5 3 17 9 ZW 1014,0 14 3 0,0
18.10.2017 09:00:00 13,9 12,3 6 3 14 7 ZW 1013,5 6 0 0,4
18.10.2017 08:00:00 14,4 11,9 5 3 10 6 Z 1013,4 20 0 -
18.10.2017 07:00:00 14,6 12,3 3 2 10 5 ZZW 1013,7 20 0 0,0
18.10.2017 06:00:00 14,5 12,2 5 3 11 6 ZZW 1013,8 20 0 0,2
18.10.2017 05:00:00 14,8 12,4 5 3 10 6 ZW 1014,6 9 0 0,2
18.10.2017 04:00:00 15,0 12,1 5 3 23 12 WNW 1014,9 20 0 0,2
18.10.2017 03:00:00 16,6 13,0 6 3 14 8 W 1015,2 20 0 0,0
18.10.2017 02:00:00 17,0 15,2 4 2 7 4 W 1015,6 14 0 -
18.10.2017 01:00:00 17,5 15,7 3 1 9 5 Z 1015,9 20 0 0,0
18.10.2017 00:00:00 17,6 15,4 6 3 11 6 ZO 1016,5 19 0 0,0
17.10.2017 23:00:00 17,8 15,4 3 2 8 4 ZO 1016,7 14 0 0,0
17.10.2017 22:00:00 17,9 15,2 2 1 4 2 ZO 1017,0 19 0 0,0
17.10.2017 21:00:00 18,1 14,4 0 0 5 3 N 1016,8 20 0 0,0
17.10.2017 20:00:00 19,3 15,0 3 1 12 6 WZW 1016,8 20 2 -
17.10.2017 19:00:00 20,7 15,0 4 2 21 11 W 1016,9 16 0 0,2
17.10.2017 18:00:00 21,2 14,3 9 5 22 12 ZW 1017,1 20 29 0,0
17.10.2017 17:00:00 21,4 14,5 11 6 26 14 ZW 1017,5 20 38 0,0
17.10.2017 16:00:00 19,9 16,7 8 5 36 19 ZZW 1018,1 20 13 0,4
17.10.2017 15:00:00 18,6 15,9 17 9 43 23 Z 1018,6 7 0 1,8
17.10.2017 14:00:00 18,6 16,0 1 1 6 4 O 1019,7 18 0 -
17.10.2017 13:00:00 18,0 15,8 4 2 24 13 ZZW 1019,8 20 0 2,2
17.10.2017 12:00:00 17,2 14,8 11 6 34 18 ZZW 1020,2 20 0 5,8
17.10.2017 11:00:00 17,3 14,9 12 6 32 17 ZO 1020,6 8 0 1,8
17.10.2017 10:00:00 16,9 14,1 16 9 28 15 ZO 1020,0 12 0 3,4
17.10.2017 09:00:00 19,2 13,0 9 5 29 16 ZW 1020,0 2,5 0 3,6
17.10.2017 08:00:00 20,8 8,8 8 4 17 9 ZO 1019,0 20 0 -
17.10.2017 07:00:00 21,1 8,7 10 5 18 10 ZO 1018,6 20 0 0,0
17.10.2017 06:00:00 21,4 9,6 5 3 17 9 ZO 1018,5 20 0 0,0
17.10.2017 05:00:00 21,8 9,3 9 5 18 10 ZO 1018,5 20 0 0,0
17.10.2017 04:00:00 21,9 10,6 3 2 8 5 ZZW 1019,0 20 0 0,0
17.10.2017 03:00:00 21,9 10,4 1 1 10 5 ZO 1019,3 19 0 0,0
17.10.2017 02:00:00 22,9 11,3 4 2 10 5 ZO 1019,5 17 0 -
17.10.2017 01:00:00 23,8 9,8 5 3 11 6 ZZO 1019,8 15 0 0,0
17.10.2017 00:00:00 23,3 7,4 4 2 10 5 ZO 1020,0 20 0 0,0
16.10.2017 23:00:00 24,3 5,6 5 3 11 6 ZZW 1019,9 13 0 0,0
16.10.2017 22:00:00 25,2 5,9 6 4 19 10 ZW 1019,8 18 0 0,0
16.10.2017 21:00:00 25,9 5,5 10 5 20 11 Z 1019,5 20 0 0,0
16.10.2017 20:00:00 26,9 4,6 11 6 23 12 ZZW 1019,3 20 0 -
16.10.2017 19:00:00 28,1 5,0 5 3 21 11 WZW 1018,9 20 16 0,0
16.10.2017 18:00:00 30,2 3,9 12 6 24 13 WZW 1018,4 20 58 0,0
16.10.2017 17:00:00 31,5 0,9 10 6 26 14 Z 1018,4 20 60 0,0
16.10.2017 16:00:00 31,8 1,1 10 5 26 14 ZO 1018,8 20 60 0,0
16.10.2017 15:00:00 31,6 1,9 8 4 26 14 Z 1019,5 20 60 0,0
16.10.2017 14:00:00 30,9 0,2 10 5 23 13 Z 1020,5 20 60 -
16.10.2017 13:00:00 28,8 6,2 6 4 19 11 O 1021,3 20 60 0,0
16.10.2017 12:00:00 27,2 4,8 8 4 21 11 OZO 1021,9 19 60 0,0
16.10.2017 11:00:00 24,6 5,3 11 6 24 13 OZO 1022,3 20 60 0,0
16.10.2017 10:00:00 22,2 4,3 6 3 22 12 O 1022,0 20 50 0,0
16.10.2017 09:00:00 21,1 4,6 11 6 29 16 OZO 1021,3 20 0 0,0
16.10.2017 08:00:00 20,0 1,9 10 6 22 12 O 1020,8 20 0 -
16.10.2017 07:00:00 19,2 2,5 3 2 11 6 NO 1020,6 20 0 0,0
16.10.2017 06:00:00 21,5 2,3 5 3 32 18 N 1020,1 20 0 0,0
16.10.2017 05:00:00 22,1 1,1 6 3 36 19 WNW 1019,9 20 0 0,0
16.10.2017 04:00:00 23,5 0,6 15 8 35 19 ZZO 1019,5 20 0 0,0
16.10.2017 03:00:00 24,4 0,0 17 9 37 20 ZZO 1019,5 20 0 0,0
16.10.2017 02:00:00 25,4 -0,7 18 10 39 21 ZZO 1019,8 20 0 -
16.10.2017 01:00:00 25,4 -0,7 14 8 38 21 ZZO 1019,8 20 0 0,0
16.10.2017 00:00:00 25,4 -0,7 15 8 31 17 ZZO 1019,7 20 0 0,0
15.10.2017 23:00:00 26,1 0,0 9 5 28 15 ZZO 1019,3 20 0 0,0
15.10.2017 22:00:00 26,7 -0,5 10 5 21 11 ZZO 1019,0 20 0 0,0
15.10.2017 21:00:00 27,6 0,4 8 4 16 8 ZO 1018,6 17 0 0,0
15.10.2017 20:00:00 29,4 0,0 6 3 21 11 ZZO 1018,0 20 8 -
15.10.2017 19:00:00 32,2 0,2 8 5 30 16 Z 1017,6 20 46 0,0
15.10.2017 18:00:00 33,7 0,4 14 7 32 17 ZZO 1017,4 20 60 0,0
15.10.2017 17:00:00 34,8 1,3 11 6 34 18 Z 1017,4 20 60 0,0
15.10.2017 16:00:00 34,5 1,1 14 8 35 19 ZZO 1018,0 17 60 0,0
15.10.2017 15:00:00 34,4 0,9 13 7 32 17 ZZO 1018,8 20 60 0,0
15.10.2017 14:00:00 33,2 1,1 14 8 29 16 ZZO 1019,8 20 60 -
15.10.2017 13:00:00 31,7 1,9 10 5 22 12 OZO 1021,1 20 60 0,0
15.10.2017 12:00:00 29,8 2,1 11 6 22 12 OZO 1021,8 20 60 0,0
15.10.2017 11:00:00 26,4 4,8 5 3 14 8 O 1022,5 20 60 0,0
15.10.2017 10:00:00 20,7 8,7 3 2 9 5 NO 1022,7 14 9 0,0
15.10.2017 09:00:00 20,0 8,7 5 3 16 9 NNW 1022,3 15 0 0,0
15.10.2017 08:00:00 21,2 5,5 5 3 11 6 O 1021,6 20 0 -
15.10.2017 07:00:00 20,2 7,6 3 2 9 5 OZO 1021,9 17 0 0,0
15.10.2017 06:00:00 20,0 8,9 3 2 9 5 N 1021,7 15 0 0,0
15.10.2017 05:00:00 20,2 9,4 6 3 12 7 W 1021,5 12 0 0,0

tt = temperatuur
td = dauwpunt
ff = windsnelheid
fx = windstoten
dd = windrichting
ppp = luchtdruk
vv = zicht
sd = Zonneschijnduur
rr = neerslag

Weerstations in de omgeving